Location: Nians�bougou
(13.2321°N, 4.9818°W)
Time: 12:54:20
(UTC+00:00)

Aurora 2 Rocket - Pass Details

Date: 18 February 2020
Orbit: 390 x 1745 km, 25.0° (Epoch: 29 March)

Event Time Altitude Azimuth Distance (km) Brightness Sun altitude
Exits shadow 06:00:25 10° 310° (NW) 2,093 4.7 -10.7°
Reaches altitude 10° 06:00:26 10° 311° (NW) 2,084 4.7 -10.7°
Maximum altitude 06:03:28 17° 351° (N) 1,487 4.3 -10.0°
Drops below altitude 10° 06:06:02 10° 32° (NNE) 1,700 5.1 -9.4°
Sets 06:08:36 0° 56° (NE) 2,435 6.4 -8.7°
